User: anonymous   Login
Location: Kaiser
(34.0939°N, 117.4889°W)
Time: 08:47:24
(UTC+00:00)
Language:

Cosmos 2228 - Orbit

View from above orbital plane
View from above orbital plane
View from above satellite
View from above satellite

Ground track
Ground track

The orbit data is extracted from the following two-line orbital elements,

1 22286U 92094A   21018.80716226  .00000182  00000-0  16901-4 0  9990
2 22286  82.5186 216.6463 0022578  86.1178 274.2620 14.88220084517547
Epoch (UTC): 18 January 2021 19:22:18
Eccentricity: 0.0022578
inclination: 82.5186°
perigee height: 588 km
apogee height: 619 km
right ascension of ascending node: 216.6463°
argument of perigee: 86.1178°
revolutions per day: 14.88220084
mean anomaly at epoch: 274.2620°
orbit number at epoch: 51754

The dashed part of the orbit path shows where the satellite is in the earth's shadow,  

DLR